SCP
2 2 1 1 1 0 0 0 0 0 0 0 0 0 0 0 0 0 0 0 0 0 0 0 0 0 0 0 0 0 0 0 0 0 0 0 0 0 0 0 0 0 0
2 2 1 1 1 0 0 0 0 0 0 0 0 0 0 0 0 0 0 0 0 0 0 0 0 0 0 0 0 0 0 0 0 0 0 0 0 0 0 0 0 0 0
2 2 1 1 1 1 1 0 0 0 0 0 0 0 0 0 0 0 0 0 0 0 0 0 0 0 0 0 0 0 0 0 0 0 0 0 0 0 0 0 0 0 0
2 2 1 1 1 1 1 1 0 0 0 0 0 0 0 0 0 0 0 0 0 0 0 0 0 0 0 0 0 0 0 0 0 0 0 0 0 0 0 0 0 0 0
2 2 2 1 1 1 1 1 0 0 0 0 0 0 0 0 0 0 0 0 0 0 0 0 0 0 0 0 0 0 0 0 0 0 0 0 0 0 0 0 0 0 0
2 2 2 2 1 1 1 1 1 0 0 0 0 0 0 0 0 0 0 0 0 0 0 0 0 0 0 0 0 0 0 0 0 0 0 0 0 0 0 0 0 0 0
2 2 2 2 2 1 1 1 1 0 0 0 0 0 0 0 0 0 0 0 0 0 0 0 0 0 0 0 0 0 0 0 0 0 0 0 0 0 0 0 0 0 0
2 2 2 2 2 2 2 1 1 1 0 0 0 0 0 0 0 0 0 0 0 0 0 0 0 0 0 0 0 0 0 0 0 0 0 0 0 0 0 0 0 0 0
2 2 2 2 2 2 2 2 1 1 1 0 0 0 0 0 0 0 0 0 0 0 0 0 0 0 0 0 0 0 0 0 0 0 0 0 0 0 0 0 0 0 0
2 2 2 2 2 2 2 2 1 1 1 1 1 0 0 0 0 0 0 0 0 0 0 0 0 0 0 0 0 0 0 0 0 0 0 1 1 1 1 1 1 1 1
2 2 2 2 2 2 2 2 1 1 1 1 1 0 0 0 0 0 0 0 0 0 0 0 0 0 0 0 0 0 0 0 0 0 0 1 1 1 1 1 1 1 1
2 2 2 2 2 2 2 2 2 2 2 1 1 1 0 0 0 0 0 0 0 0 0 0 0 0 0 0 0 0 0 0 0 0 0 0 0 1 1 1 1 1 1
2 2 2 2 2 2 2 2 2 2 2 2 1 1 1 1 0 0 0 0 0 0 0 0 0 0 0 0 0 0 0 0 0 0 0 0 0 0 0 1 1 1 1
2 2 2 2 2 2 2 2 2 2 2 2 2 1 1 1 1 1 0 0 0 0 0 0 0 0 1 1 0 0 0 0 0 0 0 0 0 0 0 0 1 1 1
2 2 2 2 2 2 2 2 2 2 2 2 2 2 2 1 1 1 1 1 0 0 0 0 0 0 0 0 0 0 0 0 0 0 0 0 0 0 0 0 0 0 0
2 2 2 2 2 2 2 2 2 2 2 2 2 2 2 2 2 2 2 2 1 1 1 0 0 0 0 0 0 1 1 0 0 0 0 0 0 0 0 0 0 0 0
3 2 2 2 2 2 2 2 2 2 2 2 2 2 2 2 2 2 2 2 2 2 1 1 1 1 1 1 1 1 1 1 1 0 0 0 0 0 0 0 0 0 0
3 2 2 2 2 2 2 2 2 2 2 2 2 2 2 2 2 2 2 2 2 2 2 1 1 1 1 1 1 1 1 1 1 0 0 0 0 0 0 0 0 0 0
2 2 2 2 2 2 2 2 2 2 2 2 2 2 2 2 2 2 2 2 2 2 2 1 1 1 1 1 1 1 1 1 1 0 0 0 0 0 0 0 0 0 0
2 2 2 2 3 3 3 3 3 2 2 2 2 2 2 2 2 2 2 2 2 2 2 2 1 1 1 1 1 1 1 1 1 0 0 0 0 0 0 0 0 0 0
2 2 2 2 3 3 3 3 3 3 3 3 2 2 1 1 1 2 2 2 2 2 2 2 1 1 1 2 2 2 1 1 1 1 1 1 1 1 0 0 0 0 0
2 2 2 3 3 3 2 2 3 3 3 3 2 2 1 1 1 1 1 1 1 1 1 1 1 1 1 2 2 2 2 1 1 2 2 2 1 1 1 1 0 0 0
3 3 3 3 3 2 1 1 1 2 2 2 2 2 2 1 1 1 1 1 1 1 1 1 1 1 1 2 2 2 2 2 2 2 2 2 1 1 1 1 0 0 0
3 3 3 3 3 2 1 0 0 1 2 2 2 2 2 2 1 1 1 1 2 1 1 0 1 1 1 2 2 2 2 2 2 2 2 2 1 1 1 1 0 0 0
3 3 3 3 3 2 1 0 0 1 1 2 2 2 2 2 1 1 1 1 2 2 1 0 0 0 1 1 1 1 2 2 2 2 2 2 1 1 1 1 1 0 0
3 3 3 3 3 3 2 0 0 1 1 1 2 2 1 1 0 0 1 1 1 1 1 0 0 0 0 0 0 1 1 2 1 2 2 1 1 1 1 1 1 1 1
Wind_Speed
5 5 3 3 3 3 5 3 2 3 2 3 2 2 2 2 3 2 6 7 6 5 5 6 7 7 7 7 7 6 7 7 7 7 6 7 6 6 6 6 5 5 5
4 5 5 4 3 3 2 2 3 3 2 2 2 2 1 3 3 1 3 7 7 6 6 6 6 7 7 7 7 7 7 8 8 7 7 7 7 7 6 6 6 6 6
5 4 4 5 4 3 4 3 3 3 3 3 3 3 2 2 3 2 2 2 6 8 7 6 5 6 7 7 8 8 8 8 8 8 8 8 8 8 7 7 7 7 7
6 5 4 4 4 4 3 3 3 3 2 2 2 2 2 2 3 4 4 3 3 4 8 7 5 5 6 7 8 9 9 9 9 9 9 9 9 9 9 9 9 9 8
7 5 4 4 5 4 3 4 3 2 2 2 3 3 2 3 3 4 3 3 4 3 4 9 8 6 6 6 7 7 8 9 9 9 9 10 10 10 10 10 10 10 10
7 6 5 5 5 4 3 2 3 2 1 2 2 1 2 2 3 4 4 4 4 5 4 3 6 7 7 5 5 5 6 7 8 8 9 9 10 10 10 10 10 10 11
8 6 5 5 5 4 4 5 4 5 3 2 3 3 4 4 3 3 4 3 4 4 3 3 3 2 5 8 6 6 6 7 7 7 8 9 10 10 10 10 10 11 11
8 8 6 6 6 4 5 5 4 3 3 3 3 3 3 5 5 4 4 4 4 4 4 5 3 3 3 3 6 7 6 6 7 7 7 8 9 9 10 10 10 10 11
8 7 8 7 6 7 6 6 6 6 4 4 4 3 3 2 4 5 4 3 4 3 4 3 5 5 4 3 4 7 6 4 5 6 6 6 6 7 8 9 10 10 10
8 8 8 7 7 6 5 7 7 5 5 5 4 3 4 4 3 3 5 5 5 4 4 3 4 5 4 3 3 3 5 4 4 4 4 5 5 6 6 7 9 9 10
8 8 8 7 7 6 6 5 4 6 5 5 4 4 4 3 5 4 3 3 5 5 4 4 3 3 3 4 4 5 6 4 4 4 4 4 4 5 5 6 7 8 9
7 9 8 7 7 6 6 6 5 7 5 4 4 4 4 4 5 4 4 4 4 4 3 3 4 4 4 4 3 7 5 4 4 4 4 4 4 5 5 6 7 7 8
7 8 8 7 7 6 6 6 6 5 5 5 5 5 5 4 4 4 5 4 3 3 3 5 4 4 4 4 3 6 6 6 6 5 5 5 5 5 5 6 6 7 8
7 8 9 8 8 8 7 6 6 6 5 5 6 5 5 5 4 4 5 4 5 4 5 5 3 4 3 4 3 5 6 9 7 7 7 7 7 7 7 7 7 8 8
7 9 10 9 9 8 7 7 5 6 5 6 6 7 6 4 4 4 4 5 5 5 4 5 4 4 4 3 3 5 6 7 8 8 8 8 8 8 8 9 9 9 9
8 9 10 10 9 9 9 8 7 6 6 6 5 4 5 5 4 4 5 5 5 6 5 2 3 3 3 4 5 6 6 6 10 10 10 9 10 10 10 10 10 10 10
9 10 10 10 10 10 9 8 8 7 8 7 7 7 7 6 5 5 5 5 5 5 6 5 4 3 4 7 4 5 7 8 8 13 12 11 11 11 11 11 11 11 11
9 9 9 10 10 10 9 10 10 9 9 9 8 8 8 6 7 7 5 6 5 4 7 7 5 5 6 7 7 7 8 8 8 9 13 12 12 12 12 12 12 12 12
9 9 9 9 9 9 10 10 10 9 10 9 9 9 9 8 9 7 7 7 6 6 6 7 7 5 5 6 6 8 9 7 9 7 12 14 14 13 13 13 14 14 14
9 9 9 9 9 10 10 10 10 10 9 9 9 9 9 9 10 9 8 8 8 7 7 8 8 7 6 6 6 7 8 7 8 8 7 8 11 14 16 15 15 15 15
9 9 9 9 9 8 9 9 9 10 9 9 9 9 9 8 7 7 7 7 8 8 8 8 8 7 7 5 6 6 7 7 7 8 8 8 8 9 11 15 18 17 16
9 8 9 9 9 7 6 7 7 8 8 9 9 9 9 9 8 9 9 8 8 9 9 8 8 8 7 7 6 7 8 8 9 6 7 9 9 9 9 10 9 13 15
9 8 8 8 8 6 7 8 8 8 8 8 8 8 8 7 9 10 10 11 11 11 11 10 11 10 8 7 7 9 9 10 10 8 7 10 10 10 10 10 8 10 13
6 6 6 7 6 5 7 7 8 9 8 7 7 7 7 6 6 6 8 9 10 10 11 11 11 11 9 7 7 9 10 11 12 10 10 11 10 11 10 10 9 12 14
5 5 5 5 5 4 6 7 7 7 7 7 7 6 6 6 4 4 7 9 9 8 8 9 9 10 9 8 8 8 10 10 11 10 8 10 11 11 11 11 10 12 15
5 5 4 4 4 4 5 7 8 6 6 5 5 5 4 5 3 5 7 8 9 8 7 6 8 10 12 12 12 11 11 11 11 11 8 8 10 10 11 10 10 8 10
Wind_Direction
173 156 149 158 166 152 166 186 162 141 167 163 164 141 136 123 114 138 123 150 169 176 183 185 183 183 185 187 190 193 191 187 185 184 185 185 184 184 182 179 180 178 178
165 165 167 168 167 176 156 174 151 167 180 140 142 127 149 135 121 158 137 150 166 174 185 191 193 193 193 195 202 204 204 201 196 195 196 198 198 198 197 195 195 194 194
171 182 172 181 170 159 160 182 166 179 180 172 157 160 164 163 143 163 171 167 165 171 179 190 199 203 206 208 209 209 211 211 207 203 204 205 205 207 209 207 204 204 204
181 191 184 176 161 173 175 167 196 193 176 187 170 188 166 167 174 180 183 185 189 168 167 174 188 204 213 221 222 217 214 212 212 211 210 211 212 213 215 215 213 211 209
186 194 190 158 179 179 183 196 159 206 182 202 191 181 198 193 187 192 186 190 180 197 172 158 180 195 208 219 227 226 220 215 215 216 217 221 223 222 221 221 219 217 215
190 194 186 172 192 182 185 187 152 195 213 219 236 157 207 194 206 185 200 185 187 198 201 173 184 182 188 200 212 218 215 214 217 220 224 228 230 229 229 227 225 223 221
187 195 193 171 201 189 193 188 192 184 209 196 212 197 190 196 188 192 206 199 183 189 181 186 222 188 176 183 194 204 211 213 215 220 228 234 234 231 230 230 230 228 227
190 193 197 193 193 188 195 196 208 227 205 201 235 225 201 181 193 189 188 201 202 192 190 191 181 197 236 192 159 185 202 213 214 220 227 234 236 233 231 230 233 234 233
193 204 194 204 193 206 194 199 201 218 220 205 230 258 258 227 164 172 195 202 206 215 217 191 196 190 208 214 179 171 187 204 213 221 224 229 234 233 233 235 235 235 234
195 196 199 201 205 212 193 207 201 213 226 218 195 240 290 343 276 184 189 184 197 217 233 234 208 194 204 214 156 138 175 198 214 228 231 228 226 227 231 236 240 239 237
195 196 198 200 205 216 207 217 191 223 223 238 223 209 215 220 251 268 223 193 196 200 203 224 236 224 204 220 208 151 162 195 215 225 232 230 224 225 232 239 246 250 247
192 194 198 199 205 211 201 207 207 210 235 248 257 239 227 228 231 241 241 226 219 196 196 224 233 219 219 220 195 123 165 199 214 220 227 233 237 240 243 245 250 255 256
193 193 197 196 202 202 203 205 205 220 214 219 236 246 250 254 260 255 261 251 242 213 198 220 216 222 226 225 179 151 191 204 218 225 231 235 241 247 250 254 259 261 262
198 189 196 197 200 199 201 199 209 207 208 217 232 245 253 246 248 251 260 260 244 227 209 216 209 215 230 235 141 202 211 191 211 224 231 235 240 244 248 254 258 260 261
194 191 196 198 199 199 203 201 214 209 204 218 219 213 235 232 239 245 249 259 268 261 234 189 218 201 227 236 167 241 245 184 203 223 233 240 244 247 250 253 255 256 256
199 195 199 198 199 198 200 208 208 207 211 217 230 233 238 235 228 234 238 243 256 271 276 248 217 218 233 261 190 241 256 186 211 223 231 239 245 249 250 252 253 253 253
196 197 198 199 200 201 202 208 220 206 214 216 217 216 222 241 234 228 227 232 236 246 257 258 241 219 226 259 247 248 252 246 232 207 217 231 242 247 249 250 251 252 252
198 198 199 202 203 203 204 210 218 214 216 218 217 216 218 213 221 242 235 234 235 243 254 261 258 237 223 237 247 255 260 252 261 200 203 221 234 241 245 247 248 249 250
197 198 198 203 208 210 210 213 217 218 219 221 218 218 219 219 222 225 231 236 233 229 239 253 253 251 243 238 245 248 255 258 266 236 204 216 226 234 241 243 243 245 247
194 198 202 206 210 214 214 214 214 218 222 223 223 223 224 225 226 228 227 233 240 245 239 248 254 248 242 236 241 254 254 240 252 266 256 243 229 225 233 237 239 240 242
197 199 205 209 212 212 214 213 215 215 219 222 223 226 228 229 234 236 244 234 233 240 245 246 250 252 249 245 248 258 267 271 259 259 265 260 249 243 235 231 233 237 238
202 201 205 208 209 213 185 196 221 222 221 225 226 227 227 218 222 228 248 262 265 252 254 259 259 260 263 264 268 270 271 270 270 259 261 267 268 268 264 260 236 216 224
200 201 204 207 211 204 169 189 212 230 228 228 229 230 234 223 214 224 222 228 242 250 255 264 268 270 272 269 272 268 265 273 277 282 273 269 268 267 266 265 236 221 227
197 202 205 208 211 195 168 187 202 223 234 233 232 231 236 242 232 237 239 234 235 231 229 235 252 263 270 279 275 271 277 272 266 260 258 267 271 271 271 271 247 226 230
191 198 201 205 209 197 174 190 202 218 224 229 231 230 233 234 227 235 248 252 254 251 235 230 241 254 269 273 271 271 268 268 270 270 260 263 272 275 274 272 266 235 230
188 193 193 201 207 209 175 188 208 227 225 224 221 221 216 239 226 213 241 253 259 264 269 253 240 244 250 247 231 241 260 267 273 277 274 269 273 278 278 272 270 267 250